TimeAKDT,TemperatureF,Dew PointF,Humidity,Sea Level PressureIn,VisibilityMPH,Wind Direction,Wind SpeedMPH,Gust SpeedMPH,PrecipitationIn,Events,Conditions,WindDirDegrees,DateUTC
12:53 AM,16.0,9.0,74,29.52,10.0,NNW,10.4,-,N/A,,Clear,340,2011-10-30 08:53:00
1:53 AM,12.0,7.0,80,29.55,10.0,NNW,4.6,-,N/A,,Clear,330,2011-10-30 09:53:00
2:53 AM,10.0,7.0,87,29.57,10.0,Variable,3.5,-,N/A,,Clear,0,2011-10-30 10:53:00
3:53 AM,10.9,6.1,81,29.60,10.0,NW,5.8,-,N/A,,Clear,320,2011-10-30 11:53:00
4:53 AM,7.0,3.0,84,29.60,10.0,Calm,Calm,-,N/A,,Clear,0,2011-10-30 12:53:00
5:53 AM,1.9,-2.0,83,29.62,10.0,North,4.6,-,N/A,,Clear,350,2011-10-30 13:53:00
6:53 AM,3.9,-0.0,84,29.63,10.0,NW,3.5,-,N/A,,Clear,310,2011-10-30 14:53:00
7:53 AM,1.9,-2.0,83,29.65,10.0,NNW,3.5,-,N/A,,Clear,340,2011-10-30 15:53:00
8:53 AM,15.1,6.1,68,29.67,10.0,North,4.6,-,N/A,,Partly Cloudy,350,2011-10-30 16:53:00
9:53 AM,3.9,-0.0,84,29.69,10.0,Calm,Calm,-,N/A,,Partly Cloudy,0,2011-10-30 17:53:00
10:53 AM,3.9,-0.0,84,29.71,10.0,Calm,Calm,-,N/A,,Partly Cloudy,0,2011-10-30 18:53:00
11:53 AM,12.0,6.1,77,29.72,10.0,North,5.8,-,N/A,,Scattered Clouds,360,2011-10-30 19:53:00
12:53 PM,14.0,7.0,74,29.73,10.0,Calm,Calm,-,N/A,,Scattered Clouds,0,2011-10-30 20:53:00
1:53 PM,15.1,8.1,74,29.75,10.0,Calm,Calm,-,N/A,,Scattered Clouds,0,2011-10-30 21:53:00
2:53 PM,19.9,9.0,62,29.76,10.0,Calm,Calm,-,N/A,,Scattered Clouds,0,2011-10-30 22:53:00
3:53 PM,17.1,9.0,71,29.76,10.0,West,8.1,-,N/A,,Scattered Clouds,280,2011-10-30 23:53:00
4:53 PM,19.9,10.0,65,29.76,10.0,Calm,Calm,-,N/A,,Scattered Clouds,0,2011-10-31 00:53:00
5:53 PM,19.0,12.0,74,29.76,10.0,Calm,Calm,-,N/A,,Mostly Cloudy,0,2011-10-31 01:53:00
6:53 PM,18.0,12.0,78,29.76,10.0,Calm,Calm,-,N/A,,Mostly Cloudy,0,2011-10-31 02:53:00
7:53 PM,9.0,6.1,88,29.77,10.0,NNE,4.6,-,N/A,,Scattered Clouds,20,2011-10-31 03:53:00
8:53 PM,5.0,1.9,87,29.77,10.0,North,5.8,-,N/A,,Scattered Clouds,10,2011-10-31 04:53:00
9:53 PM,7.0,3.0,84,29.78,10.0,Calm,Calm,-,N/A,,Partly Cloudy,0,2011-10-31 05:53:00
10:53 PM,5.0,1.0,84,29.78,10.0,NW,4.6,-,N/A,,Partly Cloudy,320,2011-10-31 06:53:00
11:53 PM,5.0,3.0,92,29.78,10.0,Calm,Calm,-,N/A,,Clear,0,2011-10-31 07:53:00